New Bedford, MA

5:03 AM EST on February 11, 2016 (GMT -0500)
New Bedford Regional

Weather History for KEWB - June, 2013

Change the Weather History Date:

Saturday, June 29, 2013

  Actual Average Record
Temperature  
Mean Temperature 73 °F -  
Max Temperature 77 °F 78 °F 97 °F (1991)
Min Temperature 69 °F 63 °F 51 °F (2014)
Cooling Degree Days 8    
Growing Degree Days 23 (Base 50)    
Moisture  
Dew Point 69 °F    
Average Humidity 93    
Maximum Humidity 100    
Minimum Humidity 73    
Precipitation  
Precipitation 0.26 in - - ()
Sea Level Pressure  
Sea Level Pressure 29.62 in    
Wind  
Wind Speed 10 mph (SSW)    
Max Wind Speed 20 mph    
Max Gust Speed 25 mph    
Visibility 5 miles    
Events Rain , Thunderstorm    
Averages and records for this station are not official NWS values.
T = Trace of Precipitation, MM = Missing Value Source: NWS Daily Summary

Daily Weather History Graph

Daily Weather History Graph

Search for Another Location

Airport or City:

Trip Planner

Search our weather history database for the weather conditions in past years. The results will help you decide how hot, cold, wet, or windy it might be!

Date:

Astronomy

Jun. 29, 2013 Rise Set
Actual Time 5:12 AM EDT 8:22 PM EDT
Civil Twilight 4:38 AM EDT 8:56 PM EDT
Nautical Twilight 3:54 AM EDT 9:40 PM EDT
Astronomical Twilight 3:02 AM EDT 10:32 PM EDT
Moon No Moon Rise 12:26 PM EDT (6/29)
Length of Visible Light 16h 18m
Length of Day
15h 10m
Waning Gibbous, 56% of the Moon is Illuminated
Jun 29
Waning Gibbous
Jun 30
Last Quarter
Jul 8
New
Jul 15
First Quarter
Jul 22
Full

Hourly Weather History & Observations

Time (EDT) Temp. Dew Point Humidity Pressure Visibility Wind Dir Wind Speed Gust Speed Precip Events Conditions
12:34 AM 69.8 °F 69.8 °F 100% 29.57 in 0.8 mi SSW 9.2 mph - N/A   Mist
12:50 AM 69.8 °F 69.8 °F 100% 29.57 in 1.5 mi South 10.4 mph - 0.01 in   Overcast
12:53 AM 69.1 °F 69.1 °F 100% 29.57 in 1.5 mi South 10.4 mph - 0.01 in   Overcast
1:53 AM 70.0 °F 69.1 °F 97% 29.55 in 0.8 mi South 10.4 mph - N/A   Mist
2:46 AM 69.8 °F 69.8 °F 100% 29.54 in 1.0 mi South 8.1 mph - N/A   Mist
2:53 AM 69.1 °F 69.1 °F 100% 29.54 in 0.8 mi South 6.9 mph - N/A   Mist
3:05 AM 69.8 °F 69.8 °F 100% 29.54 in 1.0 mi South 10.4 mph - N/A   Mist
3:53 AM 70.0 °F 69.1 °F 97% 29.54 in 1.8 mi South 5.8 mph - N/A   Overcast
4:05 AM 69.8 °F 69.8 °F 100% 29.54 in 2.0 mi South 9.2 mph - N/A   Overcast
4:53 AM 69.1 °F 69.1 °F 100% 29.55 in 2.0 mi South 9.2 mph - N/A   Overcast
5:16 AM 69.8 °F 69.8 °F 100% 29.56 in 2.0 mi South 6.9 mph - 0.03 in Rain , Thunderstorm Thunderstorms and Rain
5:23 AM 69.8 °F 69.8 °F 100% 29.57 in 1.2 mi South 11.5 mph - 0.10 in Rain , Thunderstorm Heavy Thunderstorms and Rain
5:42 AM 69.8 °F 68.0 °F 94% 29.56 in 4.0 mi SSW 6.9 mph - 0.23 in Rain , Thunderstorm Light Thunderstorms and Rain
5:53 AM 69.1 °F 68.0 °F 96% 29.55 in 9.0 mi WSW 3.5 mph - 0.24 in Rain , Thunderstorm Light Thunderstorms and Rain
6:16 AM 69.8 °F 68.0 °F 94% 29.56 in 10.0 mi SSW 6.9 mph - 0.00 in   Overcast
6:48 AM 69.8 °F 69.8 °F 100% 29.57 in 10.0 mi SSW 9.2 mph - 0.00 in   Overcast
6:53 AM 70.0 °F 69.1 °F 97% 29.57 in 10.0 mi South 10.4 mph - 0.00 in   Overcast
7:09 AM 71.6 °F 69.8 °F 94% 29.57 in 2.5 mi SSW 11.5 mph - N/A   Overcast
7:19 AM 71.6 °F 69.8 °F 94% 29.57 in 1.2 mi SSW 10.4 mph - N/A   Overcast
7:38 AM 69.8 °F 69.8 °F 100% 29.58 in 0.8 mi SSW 11.5 mph 18.4 mph N/A   Overcast
7:53 AM 70.0 °F 70.0 °F 100% 29.58 in 0.8 mi SSW 11.5 mph - N/A   Overcast
8:53 AM 71.1 °F 70.0 °F 96% 29.61 in 2.5 mi South 11.5 mph - N/A   Overcast
9:00 AM 71.6 °F 69.8 °F 94% 29.60 in 4.0 mi SSW 11.5 mph - N/A   Overcast
9:29 AM 69.8 °F 69.8 °F 100% 29.61 in 2.5 mi SW 11.5 mph - 0.00 in   Overcast
9:53 AM 71.1 °F 69.1 °F 93% 29.60 in 3.0 mi SW 11.5 mph - 0.00 in   Overcast
10:18 AM 71.6 °F 69.8 °F 94% 29.61 in 5.0 mi SW 6.9 mph - N/A   Overcast
10:53 AM 72.0 °F 70.0 °F 93% 29.61 in 5.0 mi SSW 9.2 mph - 0.00 in   Overcast
11:53 AM 71.1 °F 69.1 °F 93% 29.63 in 5.0 mi SSW 12.7 mph - 0.01 in Rain Light Rain
12:53 PM 73.0 °F 69.1 °F 87% 29.64 in 9.0 mi SW 11.5 mph - 0.00 in   Mostly Cloudy
1:53 PM 77.0 °F 69.1 °F 76% 29.65 in 10.0 mi SSW 15.0 mph - N/A   Mostly Cloudy
2:53 PM 75.9 °F 68.0 °F 76% 29.65 in 10.0 mi SSW 19.6 mph 25.3 mph N/A   Mostly Cloudy
3:00 PM 75.2 °F 66.2 °F 73% 29.65 in 10.0 mi SSW 17.3 mph 25.3 mph N/A   Mostly Cloudy
3:53 PM 75.9 °F 68.0 °F 76% 29.66 in 10.0 mi South 13.8 mph 21.9 mph N/A   Mostly Cloudy
4:38 PM 73.4 °F 68.0 °F 83% 29.67 in 10.0 mi South 11.5 mph - N/A   Overcast
4:45 PM 73.4 °F 68.0 °F 83% 29.67 in 10.0 mi South 12.7 mph - N/A   Overcast
4:53 PM 73.0 °F 68.0 °F 84% 29.68 in 9.0 mi South 11.5 mph 21.9 mph N/A   Overcast
5:16 PM 73.4 °F 69.8 °F 88% 29.68 in 8.0 mi SW 10.4 mph 18.4 mph N/A   Overcast
5:53 PM 72.0 °F 69.1 °F 91% 29.68 in 10.0 mi SSW 11.5 mph - N/A   Overcast
6:53 PM 71.1 °F 68.0 °F 90% 29.68 in 8.0 mi SW 12.7 mph - N/A   Overcast
7:04 PM 71.6 °F 68.0 °F 88% 29.68 in 7.0 mi SSW 12.7 mph - N/A   Overcast
7:53 PM 70.0 °F 68.0 °F 93% 29.69 in 5.0 mi SSW 13.8 mph - N/A   Overcast
8:53 PM 70.0 °F 68.0 °F 93% 29.72 in 5.0 mi SSW 15.0 mph 20.7 mph N/A   Overcast
9:53 PM 69.1 °F 68.0 °F 96% 29.73 in 3.0 mi SSW 12.7 mph - N/A   Overcast
10:53 PM 70.0 °F 68.0 °F 93% 29.74 in 6.0 mi SSW 11.5 mph - N/A   Overcast
11:14 PM 69.8 °F 68.0 °F 94% 29.74 in 9.0 mi SW 11.5 mph - N/A   Overcast
11:53 PM 70.0 °F 68.0 °F 93% 29.75 in 9.0 mi SSW 9.2 mph - N/A   Overcast